Погода в Воронеже

Россия / Воронежская область     51°39′38″N   39°12′00″E
В апреле 2022 года жителям России запретили посещать сайт meteo.paraplan.net по решению Генеральной прокуратуры. Аудитория сайта уменьшилась в 10 раз. Владельцы сайта не видят смысла в поддержке погодного сервера в таких условиях. Сайт будет закрыт в октябре.
темп.,
°C
ветер,
м/с
пор.,
м/с
влажн.,
%
обл.,
%
осадки,
мм/ч
давл.,
гПа
погр.,
м
6 октября, чт
чт600:00+9з488498 0.1 1021509
03:00+8з4984100 0.1 1022505
06:00+7з388652 0.0 1022409
09:00+9зюз3786100 0.0 1023390
12:00+12з366990 0.0 1023993
15:00+13зюз3671100 0.1 1022758
18:00+12зюз247739 0.0 1022119
21:00+11юз27805 0.0 1022261
7 октября, пт
пт700:00+10зюз39850 0.0 1022278
03:00+10зюз38876 0.0 1021248
06:00+9з398977 0.0 1021287
09:00+11сз48827 0.0 1023393
12:00+15сз46630 0.0 1024829
15:00+16сз45550 0.0 10241042
18:00+14сз26660 0.0 1025278
21:00+12сз24750 0.0 1026131
8 октября, сб
сб800:00+10сз13790 0.0 102777
03:00+9с12850 0.0 102751
06:00+9св11860 0.0 102718
09:00+11ююв11750 0.0 1027209
12:00+15ю11581 0.0 1026589
15:00+16ю22495 0.0 1025831
18:00+14ююв235810 0.0 102461
21:00+13ююв23635 0.0 102483
9 октября, вс
вс900:00+11ююв256640 0.0 1023120
03:00+10ююв247066 0.0 1022101
06:00+10ююв277283 0.0 1021178
09:00+12ю3866100 0.0 1020294
12:00+16ю4853100 0.0 1019789
15:00+18ююз4649100 0.0 10171141
18:00+15ююз2460100 0.0 1017106
21:00+14зюз2265100 0.0 101649
10 октября, пн
пн1000:00+12ссз4978100 0.0 1017446
03:00+11с4785100 0.3 1018607
06:00+10с41086100 1.4 1019700
09:00+10с511775 1.4 1021696
12:00+13с58563 0.0 10221320
15:00+14с58493 0.0 10221460
18:00+12с48610 0.0 1023879
21:00+10с49670 0.0 1025466